OSCAR 7 1 07530U 74089B 25341.29793994 -.00000042 00000-0 30342-4 0 9993 2 07530 101.9966 347.5085 0012339 136.8663 235.1433 12.53694048336478 OSCAR 11 (UOSAT 2) 1 14781U 84021B 25341.21994977 .00002643 00000-0 27882-3 0 9994 2 14781 97.7807 304.3342 0009234 97.2323 262.9945 14.90112709228535 OSCAR 19 (LUSAT) 1 20442U 90005G 25341.31338346 .00000313 00000-0 12869-3 0 9998 2 20442 98.8962 352.7256 0012385 52.2783 307.9521 14.34041272874893 EYESAT A 1 22825U 93061C 25341.12475967 .00000275 00000-0 12183-3 0 9996 2 22825 98.7154 43.3785 0007494 308.2883 51.7625 14.30873596679533 ITAMSAT 1 22826U 93061D 25341.16100753 .00000303 00000-0 13161-3 0 9998 2 22826 98.7101 43.3137 0007863 289.7466 70.2868 14.31294161679842 RADIO ROSTO 1 23439U 94085A 25341.28147925 -.00000012 00000-0 86209-3 0 9992 2 23439 64.8166 253.5768 0149581 39.5041 321.6675 11.27582570274269 JAS 2 1 24278U 96046B 25341.07986599 .00000035 00000-0 73558-4 0 9996 2 24278 98.5467 210.9748 0349002 234.6898 122.1144 13.53262392447188 TECHSAT 1B 1 25397U 98043D 25341.22761564 .00000193 00000-0 10380-3 0 9996 2 25397 98.9914 324.3126 0002186 66.2353 293.9054 14.24374707424002 ISS (ZARYA) 1 25544U 98067A 25341.18792727 .00013419 00000-0 24796-3 0 9997 2 25544 51.6302 169.9669 0003496 214.2568 145.8196 15.49384117541990 PCSAT 1 26931U 01043C 25341.07831587 .00000376 00000-0 17129-3 0 9992 2 26931 67.0518 21.1197 0007409 270.2749 89.7504 14.31850046262940 SAUDISAT 1C 1 27607U 02058C 25341.07111585 .00003254 00000-0 40586-3 0 9990 2 27607 64.5544 3.1188 0071943 297.6413 61.7401 14.82353094235973 CUTE-1 1 27844U 03031E 25340.96954269 .00000676 00000-0 31252-3 0 9991 2 27844 98.6763 346.9469 0010079 29.5125 330.6621 14.24171667164313 CUBESAT XI 4 1 27848U 03031J 25341.28470645 .00000576 00000-0 27271-3 0 9997 2 27848 98.6796 347.1246 0010263 45.6126 314.5891 14.23481305164079 MOZHAYETS 4 1 27939U 03042A 25341.28760825 .00002664 00000-0 42317-3 0 9990 2 27939 98.3367 155.3432 0011817 152.2009 332.6417 14.72947527187299 CUBESAT XI 5 1 28895U 05043F 25341.13913739 .00003443 00000-0 55754-3 0 9998 2 28895 98.2722 128.1224 0015416 94.8095 265.4872 14.71865639 73493 CUTE-1.7+APD 2 1 32785U 08021C 25341.26043659 .00010096 00000-0 67864-3 0 9996 2 32785 97.8088 314.2711 0008437 333.1834 26.8956 15.06942764956261 SEEDS 1 32791U 08021J 25340.93294875 .00026249 00000-0 10536-2 0 9994 2 32791 97.7438 325.8794 0000931 275.6609 84.4522 15.24956151957913 YUBELEINY 1 32953U 08025A 25341.23804545 .00000019 00000-0 67857-4 0 9990 2 32953 82.5013 114.8445 0019141 13.0181 347.1389 12.43171788795840 KKS-1 (KISEKI) 1 33499U 09002H 25341.20719904 .00003335 00000-0 42296-3 0 9996 2 33499 98.1175 255.7226 0007634 182.1950 177.9231 14.82401502907740 SWISSCUBE 1 35932U 09051B 25340.67948387 .00002877 00000-0 58418-3 0 9996 2 35932 98.4144 240.1508 0008083 90.0703 270.1423 14.61930298861021 BEESAT 1 35933U 09051C 25341.20982890 .00002294 00000-0 47480-3 0 9994 2 35933 98.4074 240.7130 0006497 99.8835 260.3099 14.61257117861146 ITUPSAT 1 1 35935U 09051E 25341.17172418 .00001974 00000-0 42118-3 0 9996 2 35935 98.4167 240.0585 0008547 109.9237 250.2884 14.60013236860718 XIWANG-1 (HOPE-1) 1 36122U 09072B 25341.26967852 -.00000017 00000-0 70588-4 0 9993 2 36122 100.3769 293.4111 0007128 316.1397 43.9149 13.16432344767754 TISAT 1 1 36799U 10035E 25341.25952307 .00027750 00000-0 11745-2 0 9992 2 36799 98.0603 267.2470 0002684 143.2664 216.8755 15.23154151838401 JUGNU 1 37839U 11058B 25341.31576558 .00000649 00000-0 19907-3 0 9998 2 37839 19.9619 34.0462 0018732 116.9673 306.4785 14.13693203731848 SRMSAT 1 37841U 11058D 25341.17103722 .00000533 00000-0 14552-3 0 9997 2 37841 19.9699 141.6553 0011709 251.5973 264.6047 14.11508539730650 HORYU 2 1 38340U 12025D 25341.28567939 .00007606 00000-0 80572-3 0 9996 2 38340 98.1959 101.9084 0009496 90.5041 269.7264 14.89397495720140 STRAND 1 1 39090U 13009E 25341.23849968 .00000735 00000-0 26232-3 0 9991 2 39090 98.3824 161.2709 0009785 85.4298 274.8007 14.36997882669497 CUBEBUG 1 1 39153U 13018D 25341.14153537 .00007184 00000-0 65161-3 0 9990 2 39153 98.1412 128.0481 0012749 65.6852 294.5698 14.95582356682341 ZACUBE 1 39417U 13066B 25340.85104808 .00008434 00000-0 68827-3 0 9991 2 39417 97.8074 297.3865 0041567 165.7322 194.5085 14.99001759651896 TRITON 1 1 39427U 13066M 25341.23395080 .00004807 00000-0 59061-3 0 9999 2 39427 97.8318 250.4815 0092946 138.7415 222.0871 14.80443366645676 GOMX 1 1 39430U 13066Q 25341.24656327 .00004056 00000-0 62242-3 0 9999 2 39430 97.6593 188.7157 0130060 334.2952 25.1826 14.68544099641730 HUMSAT D 1 39433U 13066T 25340.98628194 .00121894 00000-0 17065-2 0 9995 2 39433 97.5015 342.2691 0007364 153.0336 207.1303 15.56351166656898 CUBEBUG 2 1 39440U 13066AA 25341.30660685 .00008849 00000-0 85243-3 0 9999 2 39440 97.8704 284.9849 0058562 304.2414 55.3265 14.91879779648360 FUNCUBE 1 1 39444U 13066AE 25340.87402311 .00013472 00000-0 91562-3 0 9993 2 39444 97.8053 304.0814 0040280 134.8342 225.6170 15.05808706650685 UWE-3 1 39446U 13066AG 25340.79786437 .00008641 00000-0 77604-3 0 9993 2 39446 97.8466 291.1439 0049543 239.9506 119.6796 14.95009762648815 UNISAT 6 1 40012U 14033C 25341.29501853 .00005874 00000-0 65344-3 0 9995 2 40012 97.7617 132.8757 0045943 342.2107 17.7498 14.86744128617637 DUCHIFAT 1 1 40021U 14033M 25341.05870777 .00052074 00000-0 12983-2 0 9997 2 40021 98.0787 12.2830 0007938 52.1202 308.0759 15.40014632625970 QB50P1 1 40025U 14033R 25340.93734872 .00015664 00000-0 85768-3 0 9998 2 40025 98.0961 334.1649 0009920 152.9268 207.2481 15.14288974623890 OBJECT G 1 40905U 15049G 25341.25388626 .00036196 00000-0 58056-3 0 9994 2 40905 97.4848 10.5132 0006120 189.1616 170.9527 15.52969001566537 LILACSAT 2 1 40908U 15049K 25341.22956322 .00022513 00000-0 48683-3 0 9991 2 40908 97.4912 6.4426 0006708 219.9833 140.0922 15.44480337566052 LQSAT 1 40958U 15057A 25341.23229201 .00001534 00000-0 22695-3 0 9990 2 40958 97.6601 339.2704 0017270 170.8068 189.3462 14.76435812546988 CHUBUSAT 2 1 41338U 16012B 25340.76879305 .00011283 00000-0 53055-3 0 9994 2 41338 30.9965 141.8430 0009091 276.6644 83.2961 15.18271284539126 CHUBUSAT 3 1 41339U 16012C 25341.15188970 .00008561 00000-0 42386-3 0 9990 2 41339 31.0032 144.7340 0009451 273.7300 86.2259 15.16398209539008 PRATHAM 1 41783U 16059A 25340.90271963 .00001546 00000-0 28321-3 0 9990 2 41783 97.8267 341.3352 0032773 110.1126 250.3610 14.66815363491328 ALSAT 1N 1 41789U 16059G 25341.11445512 .00001980 00000-0 34493-3 0 9992 2 41789 97.8017 348.0852 0027583 82.6117 277.8222 14.68849393491800